Theta_e
304 305 306 306 307 307 307 307 307 307 307 307 308 309 309 310 310 310 310 310 311 311 312 312 313 315 316 317 318 318 319 320 320 321 321 321 321 322 322 322 323 323 322 322 322 321 321 321 321 321 322 322 321 321 320 319 317 316 314 310 306 303 302 300 300 299 298 298 298 299 299 300 300 301 301 301 301 301 301 301 301 301 301 302 302
304 305 305 306 306 306 307 307 307 307 307 307 308 308 309 309 309 309 309 310 311 312 312 313 314 315 315 315 315 315 316 316 317 317 318 319 319 320 319 320 320 320 320 320 319 318 318 318 319 320 320 320 320 320 320 319 318 317 315 313 309 305 302 301 300 299 298 298 298 298 299 299 299 300 300 301 301 301 301 301 301 301 301 301 301
304 304 305 305 305 306 306 307 307 307 307 307 307 307 307 307 308 308 308 309 309 310 310 311 313 314 315 315 316 316 315 314 313 312 313 314 315 317 317 317 317 317 317 316 315 314 315 316 317 318 318 319 319 319 319 319 318 318 316 315 312 308 304 301 300 299 299 298 298 298 298 298 298 299 300 300 300 301 301 301 301 301 301 301 301
303 304 304 304 305 305 306 306 306 306 307 307 308 307 307 307 307 307 307 307 307 307 307 308 308 309 311 312 312 312 312 311 309 308 308 309 311 313 314 314 314 313 312 311 310 311 313 315 315 316 317 317 317 318 318 318 318 318 317 316 314 310 306 303 301 300 299 298 298 298 298 298 298 299 300 300 300 300 300 300 301 301 301 301 301
303 303 303 303 304 305 305 306 306 307 307 307 307 308 307 307 307 307 307 308 308 308 307 307 307 306 307 307 308 308 308 307 307 307 306 306 306 307 307 307 307 307 306 306 306 308 310 312 313 314 314 315 315 316 316 316 317 317 316 316 314 312 309 306 302 300 299 299 298 298 298 298 298 299 299 299 299 300 300 300 300 300 301 300 300
302 302 302 303 304 304 305 305 306 306 306 306 307 307 307 307 307 307 308 308 308 308 308 308 308 307 306 306 306 306 306 306 306 306 305 304 304 304 304 304 304 304 304 304 304 305 306 308 310 312 312 313 313 314 314 315 315 315 315 314 313 312 311 307 304 302 300 298 298 298 298 298 299 299 299 299 299 299 299 300 300 300 300 300 300
301 302 302 302 303 304 305 305 305 305 305 306 306 306 307 307 307 307 307 307 308 308 308 308 308 308 307 306 306 306 306 305 305 305 304 304 303 303 303 303 303 303 303 303 303 303 304 304 306 308 310 311 311 312 312 313 313 313 313 313 312 311 310 307 305 303 301 299 298 298 298 297 298 298 299 299 299 299 299 300 300 300 300 300 301
301 301 301 302 303 303 304 304 304 304 304 305 305 305 305 306 306 306 306 306 306 307 307 307 308 308 307 307 306 306 305 305 305 304 304 304 304 303 303 303 303 302 302 302 302 302 303 303 303 304 306 308 309 310 310 310 311 311 311 311 310 309 308 307 307 305 302 301 299 298 297 297 297 297 298 298 299 299 299 299 300 300 300 301 301
300 301 301 301 302 302 303 303 303 303 304 304 304 304 304 305 305 305 305 305 305 305 306 306 306 306 306 307 306 306 306 305 305 305 304 304 304 303 303 302 302 302 302 302 302 302 302 302 302 302 303 304 305 307 308 308 308 309 309 309 309 308 307 306 306 305 303 302 300 299 298 297 297 297 297 298 298 298 299 299 299 300 300 300 301
299 299 300 301 301 302 302 302 302 302 303 304 304 304 304 304 305 305 304 304 304 304 304 304 304 304 305 305 305 306 306 306 305 305 305 304 304 303 303 302 302 302 302 301 301 301 301 301 301 301 301 302 302 303 304 305 306 306 307 307 307 307 306 306 305 304 303 302 300 299 298 297 297 297 297 297 298 298 299 299 299 299 299 300 300
298 298 299 300 300 301 302 302 302 302 303 304 304 304 304 304 304 304 304 304 304 303 303 303 303 303 303 303 304 304 304 305 305 305 305 305 304 304 303 302 301 301 301 301 301 301 301 300 300 300 300 300 301 301 301 302 303 303 304 305 305 305 305 305 304 304 303 302 301 299 298 297 297 297 297 297 297 298 298 299 299 299 299 299 299
298 298 298 300 300 301 301 302 302 302 303 303 304 304 304 303 303 304 304 303 303 303 303 303 302 302 302 302 302 302 302 303 303 303 303 303 303 303 303 303 302 301 301 301 301 301 301 301 300 300 299 299 299 300 300 300 300 301 301 302 303 303 304 304 303 303 302 302 301 300 299 298 297 297 296 297 297 297 298 298 298 299 299 299 299
298 299 299 300 301 301 301 301 301 301 302 302 302 302 302 302 302 302 302 301 301 301 301 301 301 301 301 301 301 301 301 301 301 301 301 301 301 301 301 302 301 301 301 301 301 301 301 301 301 300 299 299 298 299 299 300 299 299 299 300 300 301 302 302 302 302 301 300 300 299 299 298 297 297 296 296 296 297 297 298 298 299 299 299 299
299 299 300 300 301 301 300 299 299 300 301 301 301 301 301 300 300 300 300 299 299 299 299 299 299 299 299 299 299 299 299 299 300 300 299 299 300 300 300 300 300 300 300 300 301 301 301 301 301 301 300 299 299 298 299 299 299 299 299 299 299 299 300 300 301 301 301 300 299 298 298 298 298 297 296 296 296 296 297 297 298 298 299 299 299
299 299 300 300 299 299 298 298 298 300 300 300 300 299 299 299 298 298 298 297 297 297 296 297 296 296 297 297 298 298 298 297 297 297 297 297 297 298 298 298 298 298 299 299 299 300 300 300 300 301 301 301 300 299 299 299 298 299 299 299 299 299 298 299 299 300 300 300 299 299 298 298 298 297 297 296 296 296 296 296 297 298 298 298 298
298 298 298 298 298 297 297 298 299 299 299 298 297 297 296 296 296 296 295 295 295 294 294 294 293 294 294 295 295 295 295 295 295 295 295 294 294 295 295 295 295 295 296 296 296 297 298 298 299 299 300 300 300 300 300 299 299 298 298 298 299 298 298 298 298 298 298 299 299 299 298 298 298 297 297 296 296 296 296 296 296 297 297 298 298
297 297 297 297 297 297 298 298 299 298 298 297 296 295 294 294 294 293 293 292 292 292 292 291 292 292 292 292 292 292 293 293 293 293 293 292 292 293 293 293 293 293 293 293 293 293 293 294 295 296 297 298 299 299 300 300 299 299 299 298 298 298 298 298 298 297 297 297 298 298 298 298 298 298 297 297 296 296 296 296 296 296 296 297 297
296 297 297 297 297 297 298 298 298 297 297 296 295 293 293 293 293 292 292 291 291 290 290 291 291 291 291 290 290 290 290 290 290 290 291 291 291 291 291 291 291 291 291 291 291 290 290 291 291 292 293 294 295 297 298 299 299 299 299 299 298 297 297 297 297 297 297 297 297 297 297 297 297 297 297 297 296 296 295 296 296 296 296 296 296
297 297 297 297 297 297 298 297 297 297 296 294 293 293 292 292 292 291 291 290 290 290 290 290 290 290 290 289 289 289 289 288 288 288 289 289 289 289 289 290 290 290 290 290 290 290 290 289 289 289 289 290 290 292 293 295 297 298 299 299 298 297 297 297 297 296 296 296 296 296 296 296 296 297 297 297 296 296 296 295 296 296 296 296 296
298 297 297 297 297 297 297 297 297 296 295 294 293 292 292 292 291 290 290 290 290 290 290 290 290 289 289 289 289 289 288 288 288 288 288 288 288 288 288 288 288 288 288 289 289 289 289 289 289 289 289 289 289 289 289 290 291 293 295 297 298 298 297 297 297 296 296 296 295 296 296 296 296 296 296 296 296 296 296 295 295 295 296 296 296
299 298 298 298 298 298 298 297 297 295 294 293 292 292 291 291 290 290 290 290 290 290 290 289 289 289 288 288 288 288 288 288 288 288 288 288 287 287 287 287 287 287 287 287 287 287 288 288 288 288 288 288 288 288 288 288 288 289 290 292 294 295 297 298 298 297 296 295 295 295 295 295 295 295 296 296 296 296 296 296 295 295 295 295 296
299 298 298 298 298 298 297 297 296 294 293 292 291 291 290 290 290 290 290 290 289 289 289 289 288 288 288 287 287 287 287 287 287 287 287 287 287 287 287 287 287 287 287 287 287 287 287 287 287 287 287 288 288 288 288 288 288 288 288 288 289 290 292 294 296 297 297 296 295 294 295 295 294 294 295 295 295 296 296 296 296 295 295 295 295
298 298 298 297 297 296 296 295 294 292 291 291 291 290 290 290 289 289 289 289 289 289 288 288 288 288 288 287 287 287 287 287 287 287 287 287 287 287 287 287 287 287 287 287 287 287 287 287 287 287 287 287 287 287 287 287 288 288 288 287 287 287 288 289 291 293 295 296 296 296 295 294 293 294 294 294 294 295 295 296 296 295 295 295 295
297 297 296 295 295 295 295 294 292 291 290 290 290 290 290 289 289 289 289 289 288 288 288 288 288 287 287 287 287 287 287 287 287 287 287 287 287 287 287 287 287 287 287 287 287 287 287 287 287 287 287 287 287 287 287 287 287 287 287 287 287 287 287 287 287 288 290 292 294 295 296 296 294 294 294 293 293 294 294 295 296 296 295 295 295
296 295 295 295 295 295 294 293 291 290 290 290 290 290 289 289 289 289 289 288 288 288 288 288 288 288 287 287 287 287 287 287 287 287 287 287 287 287 287 287 287 287 287 286 286 286 286 286 286 286 286 286 286 286 287 286 286 286 286 286 287 287 287 287 287 287 287 287 289 291 292 294 294 295 295 294 293 293 293 294 295 295 295 295 295
296 295 294 294 294 293 292 291 290 290 290 290 290 289 289 289 289 288 288 288 288 288 288 288 288 288 288 288 288 288 288 288 287 287 287 287 287 287 286 286 286 286 286 286 286 286 286 285 286 286 286 286 286 286 286 286 286 286 286 286 286 286 286 286 287 287 287 286 286 287 288 289 291 293 294 295 294 293 292 292 293 294 294 294 295
295 294 294 294 293 292 291 290 290 289 289 289 289 289 289 288 288 288 288 288 288 288 288 288 288 288 288 288 288 288 288 288 288 287 287 287 287 287 286 286 286 286 286 286 286 286 285 285 285 285 285 285 285 285 285 285 286 286 286 286 286 286 286 286 286 286 286 286 286 286 286 287 287 289 290 292 294 294 294 293 292 292 293 293 293
295 295 295 294 292 291 290 290 290 289 289 289 289 289 289 289 289 289 288 289 289 289 289 288 288 288 288 288 288 288 288 288 288 287 287 287 286 286 286 286 286 285 285 285 285 285 285 285 285 285 285 285 285 285 285 285 285 285 285 285 285 286 286 286 286 286 286 286 286 286 286 286 286 286 287 288 289 292 293 294 293 292 291 292 292
296 296 296 294 291 290 290 290 290 289 289 289 289 289 289 289 289 289 289 289 289 289 289 289 288 288 288 288 288 288 288 287 287 287 287 286 286 286 285 285 285 285 285 285 285 285 285 285 285 285 285 285 285 285 285 285 285 285 285 285 285 285 285 285 286 286 286 286 286 286 286 286 286 286 286 286 287 288 290 292 294 293 291 291 291
296 296 295 293 292 292 291 291 290 290 290 290 289 289 289 289 289 289 289 289 289 289 289 289 288 288 288 288 288 288 287 287 286 286 286 285 285 285 285 285 285 285 285 285 285 285 285 285 285 285 285 285 285 285 285 285 284 284 284 284 284 284 284 284 285 285 285 286 286 286 286 286 286 285 285 286 286 286 287 288 291 292 293 292 291
295 294 294 293 292 292 292 291 291 291 290 290 290 290 289 289 289 289 289 289 289 289 288 288 288 288 288 288 288 287 286 286 285 285 284 284 284 284 284 284 284 284 284 284 284 284 284 284 284 284 284 284 284 285 285 284 284 284 283 283 283 284 284 284 284 284 284 285 285 285 286 285 286 286 285 285 285 286 286 286 287 289 292 293 292
294 294 293 293 292 292 292 292 291 291 291 290 290 290 290 290 289 289 289 289 289 288 288 288 288 288 287 287 286 286 285 284 284 283 283 283 283 283 283 283 283 283 283 283 283 284 284 284 284 284 284 284 284 284 284 284 284 284 283 283 283 283 283 283 283 283 284 284 284 284 285 285 285 285 286 285 285 285 285 286 286 286 288 291 292
293 293 293 292 292 292 292 291 291 291 291 290 290 290 290 290 290 289 289 289 288 288 287 287 287 287 286 286 285 284 283 283 283 282 282 282 282 282 281 281 281 282 282 282 283 283 283 283 283 283 284 284 284 284 284 284 284 283 283 282 282 282 282 282 282 283 283 283 284 284 284 284 285 285 285 285 285 285 285 285 285 285 286 287 290
292 292 291 291 291 291 291 291 291 291 290 290 290 290 290 290 289 289 288 288 287 287 287 287 286 286 285 284 283 283 282 282 282 281 281 281 281 281 281 281 280 281 281 281 282 282 282 282 283 282 282 283 284 284 284 283 283 282 282 281 280 280 280 281 281 282 282 282 283 283 283 283 284 284 284 285 285 285 285 285 285 285 285 285 286
292 291 291 290 290 290 289 290 290 290 290 290 290 290 289 289 289 289 288 287 287 286 286 286 285 284 283 283 282 282 282 281 281 280 280 280 280 280 280 280 279 280 280 280 280 280 281 281 281 281 281 281 282 283 282 281 280 280 279 278 278 278 279 279 280 280 281 281 281 282 282 283 283 283 284 284 284 285 285 285 285 285 285 285 285
291 291 290 290 290 290 290 290 290 290 290 290 290 290 289 289 289 288 287 287 286 286 285 284 283 283 282 282 282 281 281 281 280 280 280 280 280 279 279 279 278 279 279 279 279 279 279 279 280 279 278 279 281 281 280 279 277 277 276 276 276 277 277 278 278 279 279 280 280 281 281 282 282 283 283 283 284 284 285 285 285 285 285 285 285
291 290 290 290 290 290 289 290 290 290 290 290 290 290 289 289 288 287 287 287 286 285 284 283 283 282 282 282 281 281 281 280 280 280 280 280 279 279 279 278 278 278 278 278 278 278 278 278 278 277 276 276 278 279 278 276 274 274 274 274 275 275 275 276 276 277 277 278 278 279 279 280 281 282 282 282 283 283 284 284 284 285 285 285 285
290 290 290 290 290 290 289 289 289 289 289 289 289 289 289 288 287 287 286 286 285 284 283 283 282 282 282 281 281 280 280 280 280 279 279 279 279 279 278 278 277 277 277 277 276 276 276 276 275 275 274 273 274 275 274 273 273 272 272 272 272 273 273 273 274 274 275 275 276 277 277 278 279 280 281 282 282 282 283 284 284 284 284 284 285
290 290 290 290 290 289 289 289 289 289 289 288 288 288 287 287 286 286 285 284 283 283 282 282 282 282 281 281 280 280 280 279 279 279 279 279 278 278 278 277 276 276 276 275 274 273 274 274 273 272 272 271 272 273 273 272 271 271 270 270 270 271 271 272 272 272 273 273 274 274 275 276 277 278 280 282 282 283 283 283 283 284 284 284 285
290 290 290 290 289 289 289 289 289 288 288 288 288 287 286 286 286 285 284 283 283 282 282 282 282 281 281 280 280 279 279 278 278 278 278 278 278 277 277 276 276 275 274 274 273 272 272 273 271 270 271 270 270 271 271 270 269 269 268 269 269 270 270 271 271 271 272 272 272 272 273 274 274 276 278 280 282 283 283 283 283 283 284 284 284
290 290 289 289 289 289 289 289 288 288 288 287 287 286 286 285 284 283 283 282 282 282 282 282 281 281 281 280 279 279 278 278 278 278 278 278 277 276 276 275 274 274 273 272 272 271 271 271 270 269 269 269 269 269 268 268 267 267 268 269 269 269 269 270 270 270 271 271 271 271 272 272 273 274 275 277 280 282 283 284 283 283 283 284 284
289 289 289 289 289 289 289 288 287 287 287 287 286 286 285 284 283 282 282 282 282 282 281 281 281 281 280 279 279 278 278 278 278 277 277 277 276 275 275 274 273 272 271 271 271 270 270 270 270 269 269 268 268 267 267 267 266 267 267 268 269 269 270 270 270 271 271 271 272 272 272 273 273 274 275 276 277 280 282 284 284 284 283 283 284
289 289 289 289 289 289 288 287 287 287 286 286 286 285 284 283 282 282 282 282 281 281 281 281 281 280 280 279 278 278 278 278 277 277 276 276 276 275 273 272 271 271 270 270 270 270 270 269 269 269 268 268 268 267 267 267 267 267 267 268 269 269 270 270 270 270 271 271 271 272 272 273 274 275 276 276 277 278 280 283 284 284 283 283 283
289 289 289 289 289 288 288 287 287 286 286 286 285 283 283 282 282 282 281 281 281 281 281 280 280 280 279 278 278 278 278 277 277 276 276 275 274 273 272 271 270 270 270 270 270 270 269 268 268 268 268 268 268 267 267 267 267 267 267 268 268 269 269 270 270 270 270 270 270 271 271 272 273 275 276 277 278 279 280 281 283 284 284 284 284
289 289 289 288 288 288 287 287 287 286 286 285 283 282 282 282 281 281 281 281 281 281 280 280 280 279 278 278 278 278 278 277 276 275 274 274 273 272 271 271 271 271 270 270 270 269 268 267 267 267 267 267 267 267 267 267 267 267 267 268 268 269 269 270 270 270 270 270 270 271 271 272 273 274 276 277 278 279 280 281 283 284 284 285 285
288 288 288 288 288 287 287 286 286 286 285 283 282 282 282 281 281 281 281 281 280 280 280 280 279 278 278 278 278 278 278 277 276 274 273 272 272 271 271 271 271 271 270 270 269 269 268 267 266 266 266 266 267 267 267 267 267 267 268 268 269 269 270 270 270 270 270 271 271 271 272 272 273 274 275 276 277 279 281 281 282 283 284 285 285
288 288 288 287 287 286 286 286 286 285 284 282 282 281 281 281 280 280 280 280 280 280 280 279 278 278 278 278 278 278 277 276 275 274 273 272 272 271 270 271 271 271 270 269 268 267 266 266 266 266 266 267 267 267 267 268 268 268 268 269 270 270 270 271 271 271 271 271 271 272 272 273 273 274 275 276 277 278 280 282 282 283 283 284 284
287 287 287 286 286 286 286 286 285 284 282 282 282 281 281 280 280 280 280 280 279 279 279 278 277 277 278 278 278 277 276 276 275 274 273 272 272 271 270 271 271 270 269 268 267 266 266 266 266 266 267 267 267 268 268 268 268 269 270 270 270 271 271 271 271 272 272 272 272 272 273 273 274 274 275 276 276 278 280 281 282 283 283 283 284
287 287 286 286 286 285 285 285 284 282 282 281 281 281 280 280 280 280 279 279 279 279 278 277 277 277 277 277 277 276 276 275 274 273 272 272 271 271 271 270 271 271 269 266 265 266 266 267 267 267 267 267 268 268 268 269 270 271 271 271 271 272 272 272 272 272 273 273 273 273 273 274 274 274 274 275 276 277 279 281 282 284 284 284 284
286 286 286 285 285 285 285 284 283 282 281 281 281 280 280 280 280 279 279 279 278 278 278 277 277 277 277 277 277 276 275 274 274 273 272 271 271 271 271 271 270 271 269 267 266 267 267 267 268 268 268 268 268 269 269 270 271 272 272 272 272 273 273 273 273 273 273 273 273 273 273 273 273 274 274 275 275 276 278 280 282 283 284 284 284
286 286 285 285 285 284 284 283 282 281 281 281 281 280 279 279 279 278 278 278 278 277 277 277 276 277 277 277 276 275 274 274 273 273 272 271 270 271 272 272 271 271 270 269 268 268 268 268 268 268 268 268 269 269 270 271 272 272 272 273 273 273 273 273 274 274 274 274 274 274 274 274 274 274 274 275 275 276 277 279 281 282 282 282 283
Wind_Speed
14 11 11 10 9 9 9 8 8 7 6 6 5 5 4 4 4 4 6 6 7 8 7 7 7 7 8 9 9 10 11 12 13 14 16 17 18 19 20 21 22 22 22 24 26 27 28 29 30 32 33 35 35 35 35 35 35 34 33 33 32 32 32 33 33 33 33 33 33 32 33 32 32 32 31 30 29 29 28 24 22 22 22 21 19
16 16 16 16 16 16 16 16 15 14 14 12 11 9 6 4 4 4 5 4 5 5 5 6 5 5 4 4 3 4 5 6 7 10 13 15 17 18 19 20 21 21 21 22 23 24 25 26 27 29 31 33 34 35 35 35 35 34 34 34 33 33 33 33 35 36 36 36 35 33 33 33 34 34 33 32 33 32 30 27 26 26 25 23 21
20 22 21 21 22 23 23 24 24 23 23 21 20 17 14 13 12 11 8 7 7 6 5 5 5 4 3 3 2 1 1 1 2 4 6 8 11 14 16 17 18 19 19 20 21 20 21 22 24 26 28 31 32 34 35 35 35 35 35 35 34 34 33 34 36 37 37 36 34 32 32 31 32 34 36 36 36 34 32 31 29 29 27 26 24
25 25 25 25 26 28 29 30 30 30 30 30 29 28 26 24 21 20 18 16 15 13 11 9 6 4 2 2 1 1 1 2 2 2 3 4 7 10 13 15 16 17 17 17 18 17 18 20 22 24 26 28 30 32 33 34 35 36 36 36 36 35 35 36 37 37 39 37 34 31 28 25 28 33 36 36 36 35 35 34 32 31 30 28 27
27 27 27 28 29 31 32 33 33 33 34 33 33 32 31 29 27 25 25 24 23 22 20 17 14 10 7 4 2 1 1 2 2 1 1 1 3 5 8 10 11 11 11 12 12 13 15 18 21 23 25 27 29 30 31 32 33 34 35 36 37 37 37 37 37 38 40 40 39 33 26 24 29 32 31 30 33 34 34 34 33 32 31 30 29
27 28 28 28 30 32 32 33 33 34 34 33 32 32 31 29 28 26 26 26 26 26 24 22 21 18 15 11 9 8 8 9 8 6 6 5 4 2 2 3 4 5 6 7 8 10 12 15 18 20 22 24 26 28 30 30 31 32 33 35 36 36 36 38 39 39 40 41 42 41 36 32 31 29 27 26 27 30 31 32 32 32 31 31 30
26 28 27 28 30 30 31 32 32 32 31 30 29 29 28 27 26 25 25 25 25 24 23 22 22 21 18 16 14 12 11 11 10 8 7 7 7 5 5 4 3 4 3 4 5 7 9 11 14 17 19 22 24 26 28 29 29 30 31 33 34 35 36 38 40 39 41 42 42 43 44 41 35 31 29 26 23 26 29 30 30 30 30 30 28
26 27 27 27 28 29 30 29 29 29 27 27 27 27 26 26 25 24 24 24 24 23 22 21 21 20 18 17 15 13 12 11 10 9 8 7 7 6 6 6 5 4 4 4 4 4 6 8 10 13 16 19 21 24 25 26 27 28 29 31 33 34 36 38 39 39 41 43 43 43 43 44 42 39 37 32 28 27 28 29 29 29 29 29 27
24 27 27 27 27 27 27 27 26 26 25 26 26 25 25 24 23 22 22 23 23 22 21 21 20 19 18 16 15 14 13 12 10 9 9 8 8 8 8 8 7 6 6 6 6 6 5 6 7 9 12 15 18 20 23 24 26 27 28 30 31 33 34 36 38 39 41 42 42 43 43 43 44 43 41 37 34 32 30 31 31 30 31 31 28
22 24 26 26 25 26 25 24 24 23 24 24 23 23 22 22 21 20 21 22 22 21 20 20 19 18 17 16 14 14 13 12 11 10 10 9 9 9 8 8 8 8 7 7 7 7 7 6 6 7 8 10 13 16 19 22 24 26 28 29 30 32 33 34 37 38 39 41 41 43 44 44 44 44 43 40 38 36 35 34 34 33 34 33 31
21 22 24 25 24 23 22 22 21 21 21 20 21 21 20 20 19 19 20 20 20 19 19 19 18 18 17 15 14 13 13 12 11 11 11 11 10 11 10 9 8 8 8 8 8 8 8 7 7 7 7 8 10 13 15 18 20 23 25 28 29 31 32 33 35 37 38 39 41 43 44 45 45 45 44 42 42 41 39 38 37 36 37 36 33
21 21 23 23 22 21 19 20 19 18 18 18 19 19 18 18 17 17 17 17 17 17 17 17 16 17 16 15 15 15 14 13 13 13 12 13 13 13 12 11 10 9 9 9 10 10 10 9 9 9 9 8 9 10 12 14 16 19 22 25 27 29 31 32 34 36 37 38 40 41 43 45 46 46 45 44 44 44 42 42 41 38 38 37 35
21 21 21 20 20 19 18 17 16 16 16 17 18 17 16 16 14 15 15 15 15 14 14 14 13 14 14 14 14 14 14 14 14 14 14 14 14 14 14 14 13 12 12 12 12 12 11 11 10 10 10 10 10 11 11 13 14 17 19 21 24 26 28 30 33 35 36 37 38 39 41 43 45 45 44 45 45 44 43 44 42 40 39 38 35
20 19 18 18 17 17 16 15 14 14 15 16 16 15 14 14 13 13 13 13 12 12 12 11 11 12 12 12 13 12 13 13 13 13 13 13 13 14 14 14 14 14 14 14 14 13 12 12 11 10 10 11 12 12 12 13 14 15 17 19 21 23 25 27 30 33 35 36 36 37 39 42 43 43 44 45 45 45 44 44 42 40 40 39 37
17 16 16 16 15 15 14 12 12 13 14 14 13 12 12 11 11 11 11 11 11 11 11 11 11 11 11 11 11 12 12 12 12 12 12 12 12 12 13 13 13 14 14 14 14 14 13 13 13 13 12 12 12 12 12 13 14 15 17 18 19 20 22 24 27 30 33 35 36 37 38 40 42 43 44 45 45 45 46 45 44 43 40 39 39
15 14 14 14 13 12 11 10 11 13 13 13 12 11 11 11 11 11 11 10 10 10 10 11 11 11 11 11 11 10 10 10 10 11 12 12 13 13 13 13 14 14 14 14 14 14 14 14 14 14 14 14 14 14 13 12 13 15 16 18 19 19 20 23 24 27 30 32 34 36 38 40 41 41 43 44 44 44 44 44 46 46 43 40 39
14 13 12 12 11 10 8 8 10 11 11 11 10 10 10 10 10 10 11 10 10 10 10 11 11 11 12 12 11 10 9 8 8 9 10 11 12 12 13 14 14 15 16 17 18 18 17 17 16 16 15 15 16 16 16 15 15 15 16 17 18 18 20 22 23 25 27 29 32 34 37 39 39 39 41 43 43 43 43 43 44 46 46 44 41
13 11 11 10 9 7 6 7 8 8 8 8 8 8 9 9 10 10 9 10 10 10 10 11 12 13 13 12 12 11 10 10 9 8 8 9 9 10 11 12 13 15 17 18 20 20 21 21 20 20 19 19 18 17 18 18 18 18 18 18 18 18 20 21 22 24 25 26 29 32 35 37 38 38 40 41 42 43 43 42 42 43 45 47 46
12 11 10 9 7 5 4 5 5 6 6 6 6 7 7 8 8 9 9 10 10 11 12 13 13 14 13 13 13 12 12 12 12 12 11 11 11 11 11 11 12 13 14 16 18 20 21 22 23 24 24 24 23 22 21 20 20 20 21 20 20 19 20 22 21 22 24 25 27 30 32 35 36 37 39 40 40 42 43 42 41 41 43 47 48
12 11 10 8 6 3 2 3 3 3 3 3 4 4 5 6 7 8 9 9 10 11 13 14 14 14 14 14 14 14 14 14 14 14 14 14 15 15 14 14 14 14 14 15 16 18 19 21 23 24 25 26 27 27 26 25 24 23 22 23 23 22 22 23 22 22 23 24 26 29 31 32 33 36 38 39 40 41 42 43 43 42 42 43 46
11 11 9 7 5 2 1 0 0 0 0 1 1 2 3 5 6 7 8 9 11 12 13 14 15 15 15 16 16 16 17 17 17 16 17 17 17 17 17 18 17 17 18 18 18 19 20 21 22 23 24 26 27 28 29 30 30 28 27 25 25 25 26 26 25 24 23 23 26 28 30 30 30 33 35 37 38 39 40 42 44 45 45 44 43
12 12 10 8 6 4 3 2 2 1 2 2 1 1 2 3 5 6 8 10 11 12 13 14 15 15 16 17 17 18 18 19 20 20 20 20 21 21 22 22 22 22 22 22 22 22 22 23 24 24 25 25 26 27 28 30 31 32 32 30 28 27 27 28 28 28 26 25 26 28 29 29 28 30 33 34 35 37 38 40 43 45 47 47 45
12 12 10 8 5 3 2 2 1 1 1 1 1 2 3 4 5 5 7 8 9 11 12 12 13 14 15 16 17 18 19 20 21 22 22 23 23 24 25 25 26 26 26 26 26 26 26 26 26 26 27 27 27 28 28 29 30 31 33 33 33 32 30 30 30 30 30 29 29 30 30 29 28 30 32 33 33 34 35 38 41 43 45 48 47
12 10 8 7 5 4 4 4 3 3 2 1 3 4 5 6 7 7 8 9 10 11 12 13 14 14 15 17 18 19 20 21 22 23 24 25 26 26 27 28 28 29 29 29 30 30 30 30 30 30 29 29 29 29 29 29 29 30 31 33 34 35 35 34 33 32 31 31 31 32 32 31 30 31 33 33 32 33 34 35 38 40 42 45 46
11 10 9 7 7 7 7 7 6 4 3 3 4 5 7 8 9 10 11 12 12 13 14 15 16 17 18 19 21 22 23 25 26 27 27 28 29 29 30 30 31 31 32 32 32 32 33 34 34 34 34 33 33 33 33 32 31 31 31 32 33 34 35 37 37 36 34 33 33 33 34 33 32 33 34 34 33 34 33 34 36 37 39 41 43
12 11 10 9 8 9 9 8 6 5 4 5 6 7 8 9 9 11 12 13 14 14 15 16 17 18 19 20 22 23 25 27 28 29 30 31 32 32 33 33 33 34 34 34 35 35 36 37 37 38 38 38 38 38 38 37 36 35 35 34 34 34 34 36 37 39 38 36 35 35 34 34 33 34 35 34 34 34 34 34 35 36 36 37 38
13 12 11 10 10 10 9 7 5 5 6 7 7 7 8 9 9 10 12 13 14 15 16 17 18 19 20 21 22 24 25 27 28 29 30 31 32 33 35 35 36 37 37 38 39 39 40 41 41 42 42 42 42 43 43 42 42 41 40 40 39 38 37 37 37 38 39 40 39 38 36 35 34 35 35 34 33 33 34 35 36 36 35 35 36
14 12 12 12 12 11 9 7 7 7 7 7 8 8 9 10 10 11 13 15 16 18 19 20 21 22 23 25 25 26 27 28 29 30 31 33 34 35 36 38 39 40 41 42 43 44 45 46 46 47 47 47 47 48 48 47 47 46 46 46 45 44 43 42 41 39 39 40 41 41 41 38 37 36 35 34 33 31 32 34 35 36 35 36 37
13 12 12 12 12 11 10 9 9 9 9 9 10 11 11 12 13 14 16 18 20 22 23 25 26 27 28 29 30 31 32 32 33 34 35 35 37 38 39 40 42 43 44 46 47 48 49 50 51 52 52 52 52 53 52 51 50 49 49 49 49 48 48 47 47 46 43 42 41 42 43 42 40 38 36 35 34 32 32 32 34 34 36 37 38
11 11 11 11 12 12 11 12 12 12 12 13 14 14 15 15 16 17 18 20 22 24 26 28 29 30 31 32 34 34 35 36 36 37 37 38 39 40 42 43 43 45 46 47 49 50 52 53 55 56 56 57 57 57 56 55 53 52 51 51 51 51 51 50 50 51 50 49 47 45 44 43 43 42 40 37 36 34 34 33 33 32 33 37 39
9 9 9 10 11 12 13 14 15 15 16 16 17 17 17 17 17 17 17 18 21 23 25 27 29 31 32 34 35 36 37 37 37 38 39 41 42 43 44 45 45 47 47 48 50 52 53 54 55 57 58 59 60 60 59 57 55 54 52 52 52 52 52 52 52 53 54 54 53 51 49 46 45 45 44 41 39 36 35 35 34 31 31 34 38
8 9 10 11 12 14 16 17 17 17 18 18 17 16 16 16 16 16 16 18 21 23 24 26 28 30 33 34 35 36 37 38 39 40 42 43 44 45 46 47 47 48 49 50 52 53 54 54 55 56 58 59 60 61 60 59 57 55 53 52 52 52 52 52 52 53 54 55 56 56 55 53 50 47 46 45 43 40 38 36 35 34 32 32 35
7 8 8 9 10 11 13 15 17 18 18 17 16 16 17 17 17 17 17 19 22 23 24 26 28 31 33 34 35 36 38 39 40 42 43 44 45 46 47 47 48 49 50 51 52 53 54 55 55 56 57 58 59 60 59 58 57 56 55 54 52 51 51 52 52 52 53 55 56 56 57 58 56 53 49 48 47 45 42 39 37 36 35 35 35
8 8 8 9 10 10 10 11 12 15 16 16 17 18 17 18 18 18 19 21 22 23 25 28 30 32 32 33 35 37 39 41 41 42 43 44 45 46 46 46 47 48 49 51 52 53 54 55 56 56 57 59 60 59 59 58 58 58 57 55 52 50 50 51 52 53 53 54 55 55 55 57 59 58 55 52 50 48 46 43 40 39 38 38 37
10 10 10 11 11 11 11 11 12 13 16 18 19 19 19 19 19 21 22 23 24 26 28 30 31 32 33 35 38 40 41 42 43 43 44 45 45 45 46 46 46 48 50 51 52 54 55 56 57 57 58 60 61 61 60 60 59 59 57 54 51 50 51 52 53 54 54 53 53 53 54 55 57 58 58 56 52 50 48 46 44 42 41 40 40
12 12 13 13 13 13 13 14 14 15 17 19 20 21 21 22 23 25 25 26 27 30 30 31 32 34 36 38 40 41 42 43 44 45 45 45 45 45 46 47 48 49 51 52 53 54 55 57 58 58 58 60 62 62 61 60 59 56 53 51 49 50 51 52 54 56 55 54 53 51 51 53 54 56 58 58 55 52 50 49 47 46 44 43 42
12 14 15 14 14 13 13 13 14 16 18 20 21 23 24 26 28 28 29 29 30 31 31 33 35 37 39 41 41 42 43 44 44 44 44 45 46 47 47 47 48 50 52 52 53 54 55 57 58 58 57 58 62 62 60 58 56 51 47 46 47 49 50 52 55 57 56 56 56 54 52 52 53 55 57 58 57 54 51 50 50 48 46 46 45
14 15 16 15 14 14 13 13 15 16 19 21 24 26 28 29 30 30 30 31 31 31 33 36 38 40 41 42 42 43 43 43 43 43 44 45 46 47 48 48 49 51 53 53 53 54 56 56 55 55 54 54 58 60 57 54 53 50 46 45 46 48 51 54 56 57 57 57 58 58 55 53 53 53 54 55 56 55 53 52 52 50 48 48 47
16 16 16 16 16 15 15 15 17 19 21 24 26 27 28 29 29 29 30 30 31 33 36 38 40 41 42 42 42 42 42 42 42 43 44 46 47 48 49 50 50 52 53 54 53 53 55 55 52 50 49 48 50 53 51 48 47 45 42 41 42 44 48 51 52 54 55 56 57 59 57 54 53 51 50 50 52 53 53 53 52 51 50 50 49
16 17 17 17 17 17 17 18 20 22 24 26 26 27 27 28 29 29 30 31 33 36 38 40 41 42 42 42 41 40 40 41 43 44 45 46 47 49 50 50 51 52 52 53 52 51 52 53 49 46 45 44 44 46 45 42 40 38 36 35 37 40 43 45 47 48 51 54 55 57 58 56 52 50 49 49 49 50 52 54 53 53 53 53 50
17 18 18 18 19 20 20 21 22 24 25 26 27 27 28 28 28 28 30 32 35 38 39 40 42 42 42 41 39 39 40 41 43 44 46 47 47 48 49 50 51 52 51 51 51 49 50 50 47 45 44 43 42 43 43 40 37 35 34 33 34 37 39 41 44 46 49 52 54 55 56 54 50 48 48 48 48 48 50 53 54 55 55 54 50
19 20 21 21 21 22 22 22 23 24 26 27 28 28 28 27 27 29 32 35 37 39 40 41 41 41 40 39 39 39 41 42 43 44 45 47 47 47 48 48 47 48 48 48 48 47 47 48 46 44 43 42 41 41 41 39 36 34 33 32 33 35 36 37 42 46 48 49 49 50 50 49 46 45 45 46 47 48 48 51 53 54 53 52 50
20 21 22 22 23 24 24 25 25 26 27 27 28 29 28 27 29 31 34 36 38 39 40 41 41 40 39 38 38 40 41 42 43 43 44 46 47 46 45 43 42 43 44 45 45 44 45 47 46 45 43 42 41 40 39 39 38 35 34 33 34 35 35 36 41 46 48 47 47 47 46 44 41 42 43 44 45 47 48 50 51 52 52 51 49
20 22 23 23 25 26 26 27 28 28 29 29 28 28 27 28 31 33 36 37 39 40 41 40 39 38 37 37 39 40 41 41 41 42 43 44 43 42 40 39 38 40 42 44 44 44 45 47 47 47 45 42 41 41 41 41 41 39 37 36 36 36 36 36 39 44 46 47 49 50 50 46 42 42 43 44 45 46 47 49 50 50 50 49 48
21 23 24 26 27 27 27 28 28 29 30 29 27 27 28 30 33 35 37 38 39 40 40 40 38 37 37 38 39 40 40 40 40 40 41 40 39 38 37 37 37 38 41 43 43 43 45 46 47 48 47 45 44 45 45 45 44 42 40 39 38 37 36 36 38 41 44 45 45 47 48 46 45 44 43 43 45 46 47 47 48 49 48 47 47
24 25 26 27 28 28 28 28 28 29 29 28 26 27 29 32 34 36 37 39 39 40 40 38 37 37 37 38 39 40 40 40 39 38 37 35 34 35 36 37 38 39 40 41 42 43 44 46 47 48 49 49 48 48 48 47 45 44 43 41 40 40 39 39 40 42 43 44 44 44 43 42 42 42 42 42 43 43 45 45 46 47 48 48 47
26 26 27 27 27 28 28 28 28 28 28 26 26 28 31 33 35 36 37 38 39 39 38 37 37 37 37 38 39 40 40 39 38 37 35 33 32 34 36 38 38 40 40 41 42 43 44 46 49 50 51 51 50 49 48 47 46 46 46 46 44 44 42 41 41 43 44 45 45 45 44 42 40 40 41 42 41 40 41 44 46 47 48 48 48
27 27 27 28 27 27 27 28 28 27 26 25 26 29 32 34 35 36 37 38 38 37 37 37 36 36 37 37 38 39 39 39 38 36 34 33 33 34 37 38 38 39 41 41 41 42 44 46 48 50 51 52 51 49 47 46 45 45 46 47 46 45 44 42 43 44 45 45 45 46 46 45 43 41 40 41 39 35 35 39 43 46 47 47 47
28 27 27 27 27 27 28 28 27 26 25 25 28 30 32 33 34 36 37 37 37 36 36 35 35 35 36 37 37 37 37 37 38 36 35 34 33 34 38 40 38 38 38 38 38 40 42 44 45 47 49 51 51 49 46 44 43 42 41 41 41 41 41 42 42 42 43 44 44 45 45 45 44 42 42 42 39 35 33 35 37 40 43 43 44
27 27 26 26 26 27 27 27 26 25 25 27 29 31 32 33 34 35 35 35 35 35 35 34 34 34 35 36 37 36 36 36 36 37 37 37 35 33 35 38 39 38 36 35 35 37 38 40 42 43 43 44 47 47 44 41 39 38 38 38 37 37 37 38 38 37 38 40 42 43 43 43 43 43 42 41 39 36 33 33 33 34 35 37 39
26 26 26 26 26 27 26 25 24 24 26 28 30 30 31 32 33 34 33 33 33 34 34 34 33 34 34 35 35 35 35 35 35 35 37 39 40 37 34 34 36 38 37 35 34 35 35 36 37 40 40 40 42 42 39 36 37 37 38 37 35 33 33 33 33 33 36 39 41 42 43 43 42 42 40 39 39 37 34 32 32 34 34 35 36
Wind_Direction
66 67 68 70 72 76 84 88 94 101 105 112 124 134 147 159 170 157 138 137 142 141 145 156 168 184 202 211 217 223 225 228 231 236 241 244 246 248 250 252 253 253 254 255 257 260 262 263 264 264 263 262 261 261 263 263 263 262 261 258 254 251 247 243 240 238 237 238 239 241 244 246 247 247 248 250 251 253 253 254 255 256 258 260 261
80 78 78 80 80 83 86 90 92 90 87 88 90 93 96 96 88 95 107 111 107 106 108 113 119 123 140 162 178 201 210 215 220 229 236 240 245 248 251 252 254 255 256 257 258 260 261 261 262 262 263 263 263 263 262 262 261 261 259 257 254 252 249 246 243 238 236 238 239 240 240 242 244 246 248 250 250 250 252 252 252 254 255 257 257
82 80 80 82 83 85 86 86 86 85 84 83 83 83 80 75 71 75 79 75 69 65 65 77 94 108 112 111 102 94 108 189 222 229 236 238 243 249 253 256 259 261 260 258 255 253 252 255 258 259 261 263 263 263 261 260 260 260 259 258 256 253 249 246 244 242 240 239 237 237 238 240 243 245 246 247 249 250 251 250 251 253 254 255 255
84 81 81 84 85 85 85 85 84 85 85 83 82 81 78 76 74 76 76 74 72 67 63 62 65 86 116 147 169 189 207 244 245 234 232 227 234 242 247 251 253 255 253 251 247 244 243 246 251 254 257 260 262 263 262 262 262 261 261 260 258 253 249 247 246 244 242 240 234 230 233 236 240 244 246 246 247 248 249 249 250 252 253 254 253
88 84 82 82 83 83 83 84 84 83 81 79 79 77 77 76 75 75 75 75 74 71 70 69 66 67 69 78 93 96 74 58 64 51 358 212 221 233 242 243 242 242 240 238 235 235 235 238 243 247 251 255 258 260 261 263 263 263 263 261 259 257 254 252 249 246 245 244 240 234 230 233 240 245 247 246 245 246 248 248 249 251 252 253 253
90 89 87 84 84 85 83 83 81 79 78 76 76 76 75 75 74 74 73 73 73 72 71 70 70 69 69 70 67 61 54 50 48 34 15 12 7 343 304 275 262 253 241 233 228 226 228 230 234 239 245 249 254 258 260 262 262 262 263 261 260 260 259 255 251 250 249 246 243 241 241 244 248 248 244 242 243 244 245 246 247 248 250 251 251
95 93 91 89 89 88 85 83 80 79 78 76 76 74 74 73 72 71 71 71 71 70 70 68 68 68 67 68 66 61 55 50 48 39 26 19 14 8 3 359 342 319 297 270 245 232 227 225 228 234 239 244 249 254 257 260 261 262 263 263 262 260 259 256 254 253 251 248 246 245 245 245 248 249 245 242 242 242 243 244 245 246 248 249 249
100 97 94 91 90 89 87 84 82 82 80 78 75 73 71 70 68 68 68 69 68 67 67 65 64 63 62 62 62 61 57 52 48 40 33 28 22 18 15 16 16 7 352 332 306 275 251 236 232 232 234 239 245 251 255 257 259 260 261 263 263 261 258 257 258 256 253 253 252 250 247 245 245 247 248 248 248 249 249 246 245 245 246 246 247
100 101 98 95 92 90 87 85 83 81 78 75 73 71 69 66 64 64 63 64 64 63 62 63 63 61 59 57 55 56 54 51 45 37 32 26 20 19 14 11 12 14 12 359 346 333 309 280 260 249 242 239 241 248 252 255 257 258 259 261 262 262 260 259 259 258 256 257 257 254 252 249 245 244 245 247 249 250 251 250 249 246 244 246 247
100 101 100 98 95 90 87 85 82 79 75 72 69 66 62 59 56 55 55 56 57 56 56 58 59 59 58 57 54 54 53 50 46 39 35 30 25 21 15 8 1 359 3 1 350 343 336 324 305 285 270 257 249 248 249 251 254 256 258 260 262 262 262 261 260 260 260 259 258 257 255 252 248 244 242 243 245 248 249 251 253 251 251 254 255
105 103 102 100 97 94 90 86 82 78 74 68 64 59 55 54 49 45 47 47 46 46 45 46 49 51 53 54 52 53 52 49 47 43 38 35 31 28 23 16 3 350 348 349 346 343 340 334 327 315 301 285 271 261 254 251 250 252 255 258 260 261 261 261 261 261 261 260 258 257 256 255 253 251 249 248 248 248 249 251 253 255 257 259 259
113 110 108 106 103 98 92 86 82 78 72 65 61 56 51 49 43 39 42 44 42 40 38 38 40 42 46 46 45 46 45 44 44 43 41 37 35 34 32 28 23 11 357 351 348 348 346 340 331 323 316 304 289 275 266 260 255 252 251 252 255 257 258 260 260 260 260 260 259 258 258 257 256 256 256 254 253 253 254 255 256 257 258 259 260
120 118 115 111 103 96 90 86 84 80 73 65 60 54 48 46 41 38 43 47 46 43 41 41 40 43 45 45 46 46 45 45 44 42 40 37 35 34 32 30 28 24 18 11 5 360 355 351 343 332 323 314 301 287 274 266 261 257 253 251 251 252 255 257 258 259 259 260 260 260 259 259 258 257 256 255 255 255 255 255 257 257 258 260 260
124 122 117 108 100 95 93 94 91 82 71 61 55 51 48 47 45 45 52 56 54 53 53 52 52 55 53 51 49 47 45 45 43 42 39 34 31 28 26 25 22 20 18 13 10 6 1 357 353 345 336 324 312 300 287 275 267 262 259 256 254 252 253 255 257 258 258 259 260 260 259 259 259 259 257 256 255 253 253 253 255 256 257 258 257
126 123 116 107 102 100 102 100 87 70 59 55 54 54 52 53 54 54 59 64 65 66 66 66 68 69 64 59 53 46 41 39 37 35 32 29 24 20 18 16 14 12 10 6 3 0 357 354 351 348 343 334 324 313 300 288 277 270 266 262 259 255 253 253 256 257 258 258 258 258 258 258 258 258 257 256 256 255 254 255 255 255 255 256 255
131 130 122 114 110 107 104 89 65 53 51 51 54 56 57 61 63 62 65 69 71 72 75 78 78 74 68 63 58 52 45 38 32 27 23 20 15 12 10 8 5 2 359 358 355 353 351 349 346 343 340 336 331 324 314 303 288 279 274 270 266 261 257 255 255 256 257 258 258 258 258 257 256 257 257 257 256 256 256 256 255 254 254 255 255
145 141 128 119 116 112 97 70 54 50 49 49 50 54 57 60 61 62 67 70 71 75 79 78 72 65 62 60 58 56 52 45 37 26 19 12 4 3 2 359 356 354 353 352 351 350 349 346 344 341 338 335 332 328 322 317 307 295 286 279 273 268 263 260 258 257 257 257 258 258 258 257 255 255 255 255 256 256 256 256 255 255 254 253 253
157 148 136 129 122 109 85 64 56 54 51 49 55 56 54 51 50 52 54 55 60 63 62 56 52 51 53 52 50 48 46 44 39 32 23 11 1 358 354 351 349 348 348 347 346 346 345 345 344 343 341 338 334 331 326 321 317 311 303 293 284 276 269 266 262 261 259 258 259 259 258 258 256 254 252 252 253 254 255 255 255 255 255 253 252
164 155 150 144 132 113 84 65 54 53 52 55 59 54 46 43 42 43 44 45 46 42 37 34 32 34 36 36 35 34 33 31 29 26 20 14 10 7 3 357 352 348 345 342 340 340 340 341 341 341 340 339 337 335 331 326 322 318 314 308 300 289 278 272 268 265 263 261 260 259 258 258 257 256 253 250 250 250 251 252 253 253 254 254 254
171 167 164 158 150 133 86 58 45 46 47 54 56 46 40 38 36 35 33 31 27 21 20 19 18 19 18 17 15 13 13 13 13 12 9 8 7 4 2 0 357 353 348 345 342 339 337 337 337 337 336 336 335 335 333 331 327 323 319 315 311 304 295 287 279 272 267 264 263 262 260 259 259 258 255 252 249 247 248 249 250 251 251 253 254
182 180 179 181 186 195 205 291 326 52 194 124 74 44 38 31 25 20 13 9 7 7 9 9 9 9 7 6 4 1 360 358 357 357 356 356 354 352 351 350 349 347 344 343 342 340 338 337 335 334 333 332 331 330 330 329 328 326 323 319 315 311 306 301 296 288 278 271 268 266 264 262 261 260 258 255 251 248 247 247 247 249 250 250 251
195 194 198 206 215 222 223 236 244 226 204 179 156 88 54 26 15 10 2 1 1 2 3 3 4 3 1 0 359 356 354 352 350 348 347 347 345 344 343 341 340 339 338 337 336 334 334 333 332 332 330 329 328 326 325 324 323 323 322 321 319 315 310 306 303 299 294 287 280 273 269 266 264 263 261 259 256 251 248 246 245 246 248 248 248
210 208 213 220 222 224 233 260 269 258 263 290 330 354 1 359 357 355 352 352 354 354 354 354 355 354 352 351 349 347 346 345 344 342 341 341 340 339 338 336 335 335 334 333 331 330 329 328 327 326 324 324 323 322 321 320 319 318 317 317 317 315 313 309 305 302 301 298 294 287 280 275 271 267 264 262 260 256 251 248 246 245 246 247 247
218 215 215 214 214 222 236 246 237 224 239 291 323 330 332 333 333 335 340 343 344 345 343 342 343 343 343 342 340 339 338 337 336 335 335 335 334 333 333 332 331 330 330 330 328 327 326 324 323 321 320 318 317 316 316 315 315 314 312 311 311 310 309 309 307 305 303 301 299 295 292 289 285 277 270 266 264 261 257 252 249 247 246 246 247
214 211 207 206 213 222 227 228 224 222 237 273 298 306 311 318 322 326 332 335 335 334 333 333 332 333 334 334 335 334 333 332 332 331 331 331 330 330 329 328 327 327 326 326 326 325 324 323 321 320 319 318 316 314 312 311 311 309 308 306 305 304 303 303 303 303 302 300 298 297 296 296 294 289 283 276 270 266 262 259 254 251 248 248 249
209 207 208 214 218 220 224 225 227 240 258 276 287 293 301 309 316 319 320 320 320 321 321 322 322 323 324 324 325 325 326 327 327 327 327 327 327 326 325 325 325 324 324 324 324 323 321 320 319 319 318 317 316 314 312 311 310 308 306 304 301 299 297 296 296 297 298 297 296 295 294 294 294 293 291 289 283 275 269 264 260 257 255 253 252
211 213 218 226 227 226 229 233 244 258 265 273 281 287 294 300 303 305 306 306 309 311 313 315 317 317 317 318 317 317 318 319 319 320 321 321 321 321 321 322 322 322 322 322 321 320 319 317 316 316 315 314 313 312 311 310 309 307 305 303 301 299 297 294 291 291 292 293 293 292 292 291 291 291 291 292 291 286 279 271 266 263 262 259 256
218 228 238 239 233 229 232 240 251 259 264 268 274 277 281 286 290 294 299 303 306 308 310 313 315 316 317 318 318 318 318 317 316 316 317 317 318 319 319 320 320 320 320 320 319 318 316 315 314 313 312 311 310 309 308 307 306 305 303 302 300 298 297 295 292 289 287 287 288 289 289 288 288 287 288 289 289 289 285 280 273 268 265 263 260
230 242 247 242 233 231 240 250 256 263 270 273 277 281 284 288 292 297 303 308 312 313 315 317 318 319 320 321 320 321 320 318 317 317 317 318 318 318 318 318 318 318 318 317 316 315 314 313 312 311 310 309 307 306 305 305 303 302 300 298 297 295 294 293 292 290 288 284 282 283 284 286 286 285 285 285 286 286 285 283 280 273 266 263 261
242 246 244 238 237 243 252 261 269 275 280 284 287 292 296 297 301 305 309 311 313 314 316 318 319 319 320 320 319 319 318 317 317 317 317 317 317 317 317 316 316 316 315 314 313 312 312 311 310 309 308 306 305 304 303 302 301 299 298 296 295 293 291 290 289 288 287 285 284 281 280 280 282 283 283 282 282 283 283 282 281 276 269 264 260
243 247 249 250 252 257 261 268 277 282 285 287 289 293 295 296 300 302 302 301 302 306 311 313 315 316 317 317 316 315 315 314 315 315 315 316 315 315 314 314 313 313 312 311 310 309 308 308 307 306 305 304 303 302 301 300 299 298 297 296 295 294 292 290 288 286 285 284 284 283 281 279 278 279 280 281 280 280 280 280 281 277 271 265 260
251 257 263 268 270 271 273 275 279 281 284 285 286 286 284 283 285 283 281 284 291 298 303 306 310 312 312 312 312 312 313 313 314 314 314 313 313 312 312 311 310 310 309 308 307 306 305 304 303 302 301 300 299 299 298 298 297 297 296 295 295 294 293 291 289 287 286 285 283 283 282 280 278 277 277 279 279 278 277 277 278 277 274 267 261
258 264 270 275 279 282 283 284 285 284 283 280 275 271 268 266 265 266 272 283 291 294 298 302 305 307 307 309 310 310 311 311 312 312 311 311 310 309 309 308 308 308 307 306 306 304 303 302 301 299 298 297 296 295 295 295 295 295 295 295 294 292 291 289 287 286 285 284 283 283 282 281 279 277 276 276 277 277 277 276 275 274 273 270 265
265 270 273 280 285 290 289 289 287 279 271 266 262 261 260 259 261 269 282 291 294 294 298 301 304 305 307 309 309 309 310 311 311 310 310 309 308 307 307 307 306 306 305 304 304 303 301 300 299 298 297 295 294 294 294 293 293 293 293 294 293 291 288 286 284 283 282 282 282 281 280 280 279 278 277 275 274 274 274 274 273 272 270 270 269
274 274 275 280 283 286 288 288 288 280 270 265 263 261 260 263 272 285 294 297 297 298 302 304 305 307 308 309 310 311 311 311 311 311 310 309 309 308 308 308 306 305 304 303 302 301 300 299 298 297 295 294 294 294 293 293 292 292 292 292 291 289 286 284 282 280 279 279 279 278 278 278 277 277 276 275 273 272 272 272 271 270 270 268 267
273 270 271 276 279 280 284 285 286 285 278 272 268 266 270 278 289 296 299 300 301 303 305 306 307 309 311 312 312 312 312 312 312 311 311 311 311 311 310 309 307 305 303 302 300 299 298 297 296 295 294 293 293 293 292 292 292 293 293 293 291 289 286 283 281 280 278 277 276 275 275 275 275 274 274 274 273 271 270 270 269 268 269 268 266
270 266 266 270 273 276 281 284 285 284 280 276 275 278 284 291 297 299 300 301 303 305 306 308 310 312 313 313 313 314 313 313 313 312 313 313 313 312 310 309 307 305 303 302 300 299 297 296 295 295 294 293 293 293 293 293 293 294 294 292 290 287 285 282 280 279 278 277 275 274 273 273 273 272 271 271 271 270 268 267 267 266 266 266 266
269 265 264 265 269 274 279 285 287 287 286 285 286 287 291 294 296 298 300 302 304 306 308 310 312 313 313 314 314 314 314 313 313 314 314 314 313 312 311 309 308 306 304 303 301 300 298 297 296 296 296 295 295 294 295 294 293 292 291 289 287 285 283 281 280 279 278 278 276 274 272 270 269 269 269 268 268 267 266 264 264 264 263 263 264
267 263 263 265 269 274 278 283 288 292 295 295 294 294 295 296 298 300 303 305 307 309 311 312 313 313 313 314 315 314 313 314 314 315 315 314 314 313 313 312 310 308 306 305 304 302 301 300 300 300 300 299 298 297 297 298 297 295 294 292 289 287 284 283 283 283 282 281 278 275 273 270 267 267 268 267 265 264 263 262 262 262 261 261 262
271 265 265 266 270 273 277 282 289 297 302 302 300 299 299 300 302 304 306 308 310 311 312 313 313 313 313 314 314 314 314 316 317 317 317 317 317 316 315 314 312 310 309 308 307 307 306 305 306 306 305 304 303 303 304 306 306 303 300 296 292 289 286 285 285 284 283 282 280 278 276 274 271 269 267 265 263 261 259 259 259 259 258 259 261
274 268 268 270 272 274 276 282 291 300 304 303 301 300 301 302 304 306 307 309 311 312 312 312 312 312 313 314 314 315 317 319 319 320 320 319 319 318 317 316 314 313 311 310 310 310 308 307 309 309 308 308 309 309 309 311 311 306 302 299 295 291 290 289 288 287 284 283 283 283 282 281 278 274 269 265 262 259 257 256 256 256 257 259 261
273 269 269 270 272 275 279 287 297 302 304 302 301 301 303 305 306 307 309 310 311 311 311 311 311 312 313 314 316 319 321 321 322 322 321 320 320 320 319 317 314 312 311 310 310 310 309 308 309 309 310 310 311 312 312 312 311 306 301 299 296 293 292 292 290 288 287 286 286 286 286 285 282 278 273 268 263 259 256 253 253 254 256 259 260
270 267 268 269 273 278 285 294 301 303 303 301 301 302 304 305 307 309 310 311 311 311 310 310 311 311 313 316 320 322 323 323 323 324 323 322 323 321 318 315 314 313 312 311 312 312 311 310 310 311 311 312 314 315 315 314 311 305 299 297 296 293 292 291 288 286 285 285 285 283 283 284 283 280 277 271 265 260 255 252 250 251 254 257 258
266 267 269 273 278 283 289 297 301 302 301 301 301 302 303 305 308 310 311 312 311 310 310 311 311 312 316 321 324 324 324 324 325 326 326 325 324 321 317 317 318 317 315 314 315 315 313 312 312 313 314 316 318 319 317 316 314 310 302 297 294 293 293 291 287 285 285 285 284 282 281 281 281 281 280 276 269 261 256 252 249 248 250 253 253
266 269 273 276 280 284 290 296 298 298 299 300 300 301 303 307 310 312 312 311 311 310 310 310 312 316 321 325 325 324 324 325 327 329 328 326 324 321 320 322 322 320 318 317 317 317 316 314 314 314 315 318 319 318 316 315 315 313 308 304 302 300 300 298 293 289 289 289 287 286 284 281 279 280 282 281 275 265 257 252 248 245 245 247 247
268 271 274 277 280 285 290 292 294 295 296 298 299 302 305 309 312 313 312 311 310 310 310 311 315 320 324 325 324 324 326 327 329 331 329 326 325 325 325 326 326 324 321 319 319 318 318 316 315 314 315 316 316 315 314 313 313 313 311 311 311 308 306 304 300 296 294 293 291 291 290 287 282 278 279 284 284 274 260 252 248 245 243 243 243
269 272 275 278 282 285 287 289 291 293 294 296 299 303 308 311 313 313 311 311 310 310 311 314 319 323 325 326 326 325 327 329 331 331 329 328 330 331 329 329 329 327 324 322 321 319 318 316 315 314 314 314 313 313 313 313 313 313 311 311 310 308 307 305 303 301 300 299 298 297 296 294 289 283 280 283 288 283 268 255 246 241 240 241 242
269 273 276 279 282 285 286 289 291 293 293 295 300 305 309 312 313 312 311 310 311 311 312 316 321 324 326 327 326 326 328 330 331 331 331 332 336 336 333 331 331 329 324 322 319 317 315 313 311 311 311 311 310 310 311 312 312 311 310 309 308 307 306 304 303 303 302 300 298 297 296 296 294 290 287 286 287 286 277 263 249 240 238 240 242
271 274 277 280 282 284 286 290 291 292 293 296 301 307 311 312 312 311 311 311 311 311 313 317 322 325 327 327 326 327 330 332 331 331 333 335 340 340 335 331 331 330 326 318 312 308 308 309 308 307 308 307 307 308 309 310 309 309 308 308 306 305 303 301 299 300 298 295 293 292 292 292 291 289 289 288 287 287 282 270 256 244 238 237 239
272 275 278 280 281 283 286 289 290 291 293 297 303 308 312 313 312 311 311 311 311 312 314 319 324 327 328 327 326 329 332 333 332 333 335 336 339 343 339 331 329 330 328 320 310 304 305 306 305 305 305 304 303 306 309 310 311 311 310 308 306 304 303 301 300 298 294 291 290 290 289 289 289 288 288 287 287 288 286 275 260 249 242 238 236
272 276 278 279 281 284 286 287 289 290 293 298 305 310 313 313 311 311 311 311 311 312 315 321 326 328 328 327 327 330 334 334 334 336 337 336 337 340 342 337 332 330 329 326 320 315 313 311 308 306 307 305 303 306 312 314 312 310 307 306 304 302 303 303 304 301 295 291 290 289 288 288 287 286 286 284 283 285 287 280 267 256 252 250 245